TimeEST,TemperatureF,Dew PointF,Humidity,Sea Level PressureIn,VisibilityMPH,Wind Direction,Wind SpeedMPH,Gust SpeedMPH,PrecipitationIn,Events,Conditions,WindDirDegrees,DateUTC
12:15 AM,41.0,35.6,81,30.07,10.0,SW,4.6,-,N/A,,Clear,220,2013-02-15 05:15:00
12:35 AM,41.0,35.6,81,30.07,10.0,SSW,4.6,-,N/A,,Clear,200,2013-02-15 05:35:00
12:55 AM,39.2,35.6,87,30.07,10.0,SSW,3.5,-,N/A,,Clear,200,2013-02-15 05:55:00
1:15 AM,39.2,35.6,87,30.07,10.0,SSW,5.8,-,N/A,,Clear,210,2013-02-15 06:15:00
1:35 AM,39.2,35.6,87,30.07,10.0,SW,3.5,-,N/A,,Clear,220,2013-02-15 06:35:00
1:55 AM,39.2,35.6,87,30.07,10.0,SW,4.6,-,N/A,,Clear,230,2013-02-15 06:55:00
2:15 AM,41.0,35.6,81,30.07,10.0,SW,4.6,-,N/A,,Clear,220,2013-02-15 07:15:00
2:35 AM,41.0,35.6,81,30.07,10.0,WSW,8.1,-,N/A,,Clear,250,2013-02-15 07:35:00
2:55 AM,41.0,35.6,81,30.06,10.0,West,8.1,-,N/A,,Clear,260,2013-02-15 07:55:00
3:15 AM,41.0,35.6,81,30.05,10.0,West,4.6,-,N/A,,Clear,280,2013-02-15 08:15:00
3:35 AM,39.2,35.6,87,30.04,10.0,West,5.8,-,N/A,,Clear,270,2013-02-15 08:35:00
3:55 AM,39.2,35.6,87,30.04,10.0,West,4.6,-,N/A,,Clear,270,2013-02-15 08:55:00
4:15 AM,39.2,33.8,81,30.04,10.0,WNW,4.6,-,N/A,,Clear,290,2013-02-15 09:15:00
4:35 AM,39.2,33.8,81,30.04,10.0,West,9.2,-,N/A,,Clear,280,2013-02-15 09:35:00
4:55 AM,39.2,33.8,81,30.05,10.0,WNW,4.6,-,N/A,,Clear,290,2013-02-15 09:55:00
5:15 AM,39.2,33.8,81,30.06,10.0,WSW,5.8,-,N/A,,Clear,250,2013-02-15 10:15:00
5:35 AM,37.4,33.8,87,30.06,10.0,Calm,Calm,-,N/A,,Clear,0,2013-02-15 10:35:00
5:55 AM,35.6,33.8,93,30.06,10.0,South,4.6,-,N/A,,Clear,170,2013-02-15 10:55:00
6:15 AM,37.4,33.8,87,30.06,10.0,South,4.6,-,N/A,,Clear,190,2013-02-15 11:15:00
6:35 AM,37.4,33.8,87,30.06,10.0,South,4.6,-,N/A,,Clear,170,2013-02-15 11:35:00
6:55 AM,35.6,33.8,93,30.07,10.0,South,3.5,-,N/A,,Clear,180,2013-02-15 11:55:00
7:15 AM,37.4,33.8,87,30.08,7.0,South,5.8,-,N/A,,Clear,170,2013-02-15 12:15:00
7:35 AM,37.4,33.8,87,30.08,10.0,South,4.6,-,N/A,,Clear,170,2013-02-15 12:35:00
7:55 AM,37.4,35.6,93,30.09,10.0,South,3.5,-,N/A,,Clear,170,2013-02-15 12:55:00
8:15 AM,37.4,35.6,93,30.09,10.0,Calm,Calm,-,N/A,,Clear,0,2013-02-15 13:15:00
8:35 AM,39.2,35.6,87,30.09,10.0,SSW,3.5,-,N/A,,Clear,200,2013-02-15 13:35:00
8:55 AM,41.0,35.6,81,30.09,10.0,South,3.5,-,N/A,,Clear,190,2013-02-15 13:55:00
9:15 AM,42.8,35.6,76,30.08,10.0,SW,4.6,-,N/A,,Clear,220,2013-02-15 14:15:00
9:35 AM,44.6,35.6,71,30.09,10.0,Calm,Calm,-,N/A,,Clear,0,2013-02-15 14:35:00
9:55 AM,48.2,37.4,66,30.08,10.0,Calm,Calm,-,N/A,,Clear,0,2013-02-15 14:55:00
10:15 AM,51.8,37.4,58,30.08,10.0,Calm,Calm,-,N/A,,Clear,0,2013-02-15 15:15:00
10:35 AM,51.8,37.4,58,30.08,10.0,Calm,Calm,-,N/A,,Clear,0,2013-02-15 15:35:00
10:55 AM,53.6,37.4,54,30.08,10.0,Calm,Calm,-,N/A,,Clear,0,2013-02-15 15:55:00
11:15 AM,55.4,37.4,51,30.07,10.0,Calm,Calm,-,N/A,,Clear,0,2013-02-15 16:15:00
11:35 AM,55.4,37.4,51,30.06,10.0,Calm,Calm,-,N/A,,Clear,0,2013-02-15 16:35:00
11:55 AM,57.2,37.4,48,30.06,10.0,Calm,Calm,-,N/A,,Clear,0,2013-02-15 16:55:00
12:15 PM,59.0,35.6,42,30.05,10.0,WSW,3.5,-,N/A,,Clear,250,2013-02-15 17:15:00
12:55 PM,62.6,39.2,42,30.02,10.0,SSE,9.2,-,N/A,,Clear,150,2013-02-15 17:55:00
1:15 PM,60.8,39.2,45,30.01,10.0,SSE,6.9,-,N/A,,Clear,160,2013-02-15 18:15:00
1:35 PM,60.8,39.2,45,30.00,10.0,SSE,5.8,-,N/A,,Clear,160,2013-02-15 18:35:00
1:55 PM,60.8,39.2,45,29.99,10.0,SSE,8.1,-,N/A,,Clear,160,2013-02-15 18:55:00
2:15 PM,62.6,37.4,39,29.98,10.0,SSE,9.2,-,N/A,,Clear,150,2013-02-15 19:15:00
2:35 PM,62.6,37.4,39,29.98,10.0,SSE,8.1,-,N/A,,Clear,150,2013-02-15 19:35:00
2:55 PM,62.6,37.4,39,29.97,10.0,SE,5.8,-,N/A,,Clear,140,2013-02-15 19:55:00
3:15 PM,62.6,35.6,37,29.97,10.0,SE,6.9,-,N/A,,Clear,140,2013-02-15 20:15:00
3:35 PM,62.6,35.6,37,29.96,10.0,SE,6.9,-,N/A,,Clear,140,2013-02-15 20:35:00
3:55 PM,62.6,35.6,37,29.95,10.0,SSE,5.8,-,N/A,,Clear,150,2013-02-15 20:55:00
4:15 PM,60.8,35.6,39,29.95,10.0,SSE,6.9,-,N/A,,Clear,150,2013-02-15 21:15:00
4:35 PM,60.8,37.4,42,29.95,10.0,SSE,4.6,-,N/A,,Clear,150,2013-02-15 21:35:00
4:55 PM,60.8,35.6,39,29.95,10.0,SSE,5.8,-,N/A,,Clear,150,2013-02-15 21:55:00
5:15 PM,57.2,37.4,48,29.94,10.0,SSE,6.9,-,N/A,,Clear,150,2013-02-15 22:15:00
5:35 PM,55.4,35.6,47,29.94,10.0,SSE,8.1,-,N/A,,Clear,160,2013-02-15 22:35:00
5:55 PM,53.6,37.4,54,29.94,10.0,SSE,10.4,-,N/A,,Clear,160,2013-02-15 22:55:00
6:15 PM,53.6,37.4,54,29.94,10.0,SSE,8.1,-,N/A,,Clear,160,2013-02-15 23:15:00
6:35 PM,51.8,37.4,58,29.94,10.0,SSE,5.8,-,N/A,,Clear,150,2013-02-15 23:35:00
6:55 PM,51.8,39.2,62,29.94,10.0,SSE,9.2,-,N/A,,Clear,150,2013-02-15 23:55:00
7:15 PM,51.8,41.0,67,29.94,10.0,SSE,9.2,-,N/A,,Clear,150,2013-02-16 00:15:00
7:35 PM,50.0,39.2,66,29.94,10.0,SSE,6.9,-,N/A,,Clear,150,2013-02-16 00:35:00
7:55 PM,50.0,37.4,62,29.95,10.0,SSE,12.7,-,N/A,,Clear,150,2013-02-16 00:55:00
8:15 PM,48.2,39.2,71,29.95,10.0,SSE,10.4,-,N/A,,Clear,150,2013-02-16 01:15:00
8:35 PM,48.2,39.2,71,29.96,10.0,SSE,10.4,-,N/A,,Clear,160,2013-02-16 01:35:00
8:55 PM,48.2,39.2,71,29.96,10.0,SSE,10.4,-,N/A,,Clear,150,2013-02-16 01:55:00
9:15 PM,48.2,39.2,71,29.97,10.0,SSE,9.2,-,N/A,,Clear,150,2013-02-16 02:15:00
9:35 PM,46.4,39.2,76,29.97,10.0,SSE,9.2,-,N/A,,Clear,150,2013-02-16 02:35:00
9:55 PM,46.4,39.2,76,29.96,10.0,SSE,8.1,-,N/A,,Clear,160,2013-02-16 02:55:00
10:15 PM,46.4,37.4,71,29.96,10.0,SSE,6.9,-,N/A,,Clear,160,2013-02-16 03:15:00
10:35 PM,46.4,37.4,71,29.96,10.0,South,6.9,-,N/A,,Clear,170,2013-02-16 03:35:00
10:55 PM,46.4,37.4,71,29.95,10.0,South,8.1,-,N/A,,Scattered Clouds,170,2013-02-16 03:55:00
11:15 PM,46.4,37.4,71,29.97,10.0,NNW,13.8,17.3,N/A,,Overcast,340,2013-02-16 04:15:00
11:35 PM,48.2,37.4,66,29.98,10.0,NW,4.6,-,N/A,,Overcast,320,2013-02-16 04:35:00
11:55 PM,46.4,37.4,71,29.99,10.0,North,10.4,18.4,N/A,,Scattered Clouds,10,2013-02-16 04:55:00